| time (UTC) | temp F | wind direction | speed knots | gust knots | rain 1hr in | rain 24hr in | rain mn in | humidity % | barometer mb |
| 20260510221133 | 86 | 295 | 2.6 | 6.1 | 0.00 | 0.00 | 0.00 | 33 | 1016.2 |
| 20260510220633 | 86 | 78 | 0.9 | 8.7 | 0.00 | 0.00 | 0.00 | 35 | 1016.3 |
| 20260510220133 | 86 | 264 | 5.2 | 9.6 | 0.00 | 0.00 | 0.00 | 33 | 1016.2 |
| 20260510215633 | 86 | 211 | 3.5 | 9.6 | 0.00 | 0.00 | 0.00 | 33 | 1016.0 |
| 20260510214633 | 88 | 208 | 6.1 | 7.8 | 0.00 | 0.00 | 0.00 | 32 | 1016.2 |
| 20260510214133 | 87 | 238 | 3.5 | 7.0 | 0.00 | 0.00 | 0.00 | 34 | 1016.3 |
| 20260510213133 | 87 | 223 | 2.6 | 9.6 | 0.00 | 0.00 | 0.00 | 31 | 1016.2 |
| 20260510212633 | 87 | 246 | 6.1 | 7.8 | 0.00 | 0.00 | 0.00 | 31 | 1016.2 |
| 20260510212133 | 87 | 192 | 3.5 | 7.8 | 0.00 | 0.00 | 0.00 | 31 | 1016.1 |
| 20260510211633 | 87 | 288 | 0.0 | 7.8 | 0.00 | 0.00 | 0.00 | 29 | 1016.1 |
| 20260510210632 | 86 | 268 | 3.5 | 7.8 | 0.00 | 0.00 | 0.00 | 29 | 1015.9 |
| 20260510205633 | 87 | 232 | 0.0 | 6.1 | 0.00 | 0.00 | 0.00 | 30 | 1016.4 |
| 20260510205133 | 87 | 345 | 1.7 | 7.8 | 0.00 | 0.00 | 0.00 | 31 | 1016.4 |
| 20260510204633 | 87 | 208 | 2.6 | 9.6 | 0.00 | 0.00 | 0.00 | 31 | 1016.5 |
| 20260510204132 | 87 | 261 | 0.9 | 9.6 | 0.00 | 0.00 | 0.00 | 30 | 1016.5 |
| 20260510202632 | 87 | 252 | 4.3 | 8.7 | 0.00 | 0.00 | 0.00 | 32 | 1016.9 |
| 20260510202132 | 87 | 222 | 1.7 | 8.7 | 0.00 | 0.00 | 0.00 | 29 | 1016.7 |
| 20260510201632 | 88 | 246 | 4.3 | 7.0 | 0.00 | 0.00 | 0.00 | 31 | 1016.9 |
| 20260510201132 | 88 | 205 | 0.9 | 7.0 | 0.00 | 0.00 | 0.00 | 29 | 1016.8 |
| 20260510200632 | 88 | 232 | 5.2 | 7.0 | 0.00 | 0.00 | 0.00 | 29 | 1016.9 |
| 20260510195631 | 88 | 236 | 1.7 | 7.8 | 0.00 | 0.00 | 0.00 | 28 | 1016.6 |
| 20260510195132 | 88 | 285 | 2.6 | 7.8 | 0.00 | 0.00 | 0.00 | 27 | 1016.6 |
| 20260510194632 | 88 | 263 | 1.7 | 8.7 | 0.00 | 0.00 | 0.00 | 26 | 1016.5 |
| 20260510194131 | 89 | 179 | 1.7 | 8.7 | 0.00 | 0.00 | 0.00 | 26 | 1016.5 |
| 20260510193631 | 88 | 204 | 0.0 | 6.1 | 0.00 | 0.00 | 0.00 | 25 | 1016.4 |
| 20260510193131 | 88 | 155 | 1.7 | 7.0 | 0.00 | 0.00 | 0.00 | 26 | 1016.5 |
| 20260510191632 | 88 | 234 | 2.6 | 7.8 | 0.00 | 0.00 | 0.00 | 25 | 1016.5 |
| 20260510190631 | 88 | 360 | 2.6 | 9.6 | 0.00 | 0.00 | 0.00 | 23 | 1016.5 |
| 20260510190132 | 88 | 236 | 7.8 | 7.8 | 0.00 | 0.00 | 0.00 | 23 | 1016.4 |
| 20260510185632 | 87 | 223 | 0.9 | 9.6 | 0.00 | 0.00 | 0.00 | 25 | 1016.4 |
| 20260510185131 | 86 | 226 | 2.6 | 9.6 | 0.00 | 0.00 | 0.00 | 21 | 1016.0 |
| 20260510184631 | 86 | 233 | 0.0 | 8.7 | 0.00 | 0.00 | 0.00 | 20 | 1016.1 |
| 20260510184131 | 87 | 242 | 1.7 | 7.8 | 0.00 | 0.00 | 0.00 | 22 | 1016.2 |
| 20260510183631 | 87 | 326 | 3.5 | 7.8 | 0.00 | 0.00 | 0.00 | 21 | 1016.3 |
| 20260510183131 | 87 | 232 | 2.6 | 7.8 | 0.00 | 0.00 | 0.00 | 21 | 1016.3 |
| 20260510182131 | 87 | 259 | 1.7 | 7.8 | 0.00 | 0.00 | 0.00 | 20 | 1016.3 |
| 20260510181631 | 87 | 246 | 2.6 | 7.8 | 0.00 | 0.00 | 0.00 | 19 | 1016.2 |
| 20260510181131 | 86 | 246 | 1.7 | 7.8 | 0.00 | 0.00 | 0.00 | 22 | 1016.1 |
| 20260510180630 | 86 | 193 | 3.5 | 7.8 | 0.00 | 0.00 | 0.00 | 22 | 1016.2 |
| 20260510180131 | 85 | 232 | 1.7 | 9.6 | 0.00 | 0.00 | 0.00 | 21 | 1016.3 |
| 20260510175130 | 85 | 233 | 0.9 | 7.8 | 0.00 | 0.00 | 0.00 | 19 | 1016.4 |
| 20260510174131 | 85 | 275 | 3.5 | 9.6 | 0.00 | 0.00 | 0.00 | 22 | 1016.5 |
| 20260510173630 | 85 | 257 | 7.8 | 9.6 | 0.00 | 0.00 | 0.00 | 22 | 1016.5 |
| 20260510173130 | 85 | 261 | 5.2 | 7.8 | 0.00 | 0.00 | 0.00 | 20 | 1016.5 |
| 20260510172630 | 85 | 227 | 2.6 | 7.8 | 0.00 | 0.00 | 0.00 | 20 | 1016.4 |
| 20260510171630 | 85 | 215 | 2.6 | 7.8 | 0.00 | 0.00 | 0.00 | 18 | 1016.1 |
| 20260510170630 | 85 | 221 | 3.5 | 6.1 | 0.00 | 0.00 | 0.00 | 18 | 1016.1 |
| 20260510170130 | 85 | 255 | 3.5 | 6.1 | 0.00 | 0.00 | 0.00 | 19 | 1015.9 |
| 20260510165630 | 84 | 243 | 2.6 | 4.3 | 0.00 | 0.00 | 0.00 | 19 | 1015.7 |
| 20260510165130 | 84 | 238 | 1.7 | 3.5 | 0.00 | 0.00 | 0.00 | 19 | 1015.6 |
| 20260510164630 | 83 | 221 | 0.0 | 6.1 | 0.00 | 0.00 | 0.00 | 20 | 1015.6 |
| 20260510164130 | 82 | 211 | 2.6 | 6.1 | 0.00 | 0.00 | 0.00 | 21 | 1015.4 |
| 20260510163630 | 82 | 225 | 0.0 | 3.5 | 0.00 | 0.00 | 0.00 | 21 | 1015.4 |
| 20260510163129 | 81 | 227 | 1.7 | 4.3 | 0.00 | 0.00 | 0.00 | 20 | 1015.4 |
| 20260510162630 | 81 | 215 | 1.7 | 5.2 | 0.00 | 0.00 | 0.00 | 20 | 1015.4 |
| 20260510162130 | 80 | 221 | 0.0 | 5.2 | 0.00 | 0.00 | 0.00 | 23 | 1015.2 |
| 20260510161630 | 80 | 215 | 0.0 | 3.5 | 0.00 | 0.00 | 0.00 | 25 | 1015.1 |
| 20260510161130 | 80 | 248 | 0.9 | 3.5 | 0.00 | 0.00 | 0.00 | 25 | 1015.1 |
| 20260510160130 | 78 | 182 | 0.0 | 3.5 | 0.00 | 0.00 | 0.00 | 24 | 1014.8 |
| 20260510155129 | 77 | 171 | 0.9 | 3.5 | 0.00 | 0.00 | 0.00 | 27 | 1014.7 |
| 20260510154629 | 77 | 169 | 0.0 | 3.5 | 0.00 | 0.00 | 0.00 | 28 | 1014.6 |
| 20260510154130 | 76 | 160 | 0.9 | 1.7 | 0.00 | 0.00 | 0.00 | 31 | 1014.7 |
| 20260510153629 | 75 | 159 | 0.0 | 3.5 | 0.00 | 0.00 | 0.00 | 32 | 1014.4 |
| 20260510153129 | 75 | 159 | 1.7 | 3.5 | 0.00 | 0.00 | 0.00 | 34 | 1014.5 |
| 20260510152629 | 74 | 79 | 0.0 | 0.0 | 0.00 | 0.00 | 0.00 | 35 | 1014.5 |
| 20260510152129 | 73 | 79 | 0.0 | 0.0 | 0.00 | 0.00 | 0.00 | 39 | 1014.3 |
| 20260510151629 | 72 | 79 | 0.0 | 1.7 | 0.00 | 0.00 | 0.00 | 38 | 1014.4 |
| 20260510150629 | 70 | 79 | 0.0 | 3.5 | 0.00 | 0.00 | 0.00 | 40 | 1014.1 |
| 20260510150128 | 69 | 80 | 1.7 | 4.3 | 0.00 | 0.00 | 0.00 | 36 | 1013.7 |
| 20260510145629 | 68 | 60 | 2.6 | 4.3 | 0.00 | 0.00 | 0.00 | 37 | 1014.5 |
| 20260510145128 | 67 | 74 | 2.6 | 4.3 | 0.00 | 0.00 | 0.00 | 37 | 1014.2 |
| 20260510144629 | 65 | 53 | 0.9 | 4.3 | 0.00 | 0.00 | 0.00 | 37 | 1014.0 |
| 20260510144129 | 64 | 69 | 3.5 | 6.1 | 0.00 | 0.00 | 0.00 | 39 | 1014.0 |
| 20260510143128 | 62 | 74 | 6.1 | 6.1 | 0.00 | 0.00 | 0.00 | 39 | 1013.7 |
| 20260510142628 | 61 | 42 | 4.3 | 6.1 | 0.00 | 0.00 | 0.00 | 40 | 1013.3 |
| 20260510142129 | 60 | 74 | 3.5 | 7.0 | 0.00 | 0.00 | 0.00 | 39 | 1013.3 |
| 20260510141128 | 57 | 57 | 2.6 | 7.0 | 0.00 | 0.00 | 0.00 | 40 | 1012.7 |
| 20260510140128 | 55 | 81 | 3.5 | 7.0 | 0.00 | 0.00 | 0.00 | 39 | 1012.5 |
| 20260510135628 | 54 | 75 | 3.5 | 7.8 | 0.00 | 0.00 | 0.00 | 39 | 1013.6 |
| 20260510135128 | 54 | 68 | 3.5 | 9.6 | 0.00 | 0.00 | 0.00 | 40 | 1013.6 |
| 20260510134628 | 53 | 71 | 3.5 | 9.6 | 0.00 | 0.00 | 0.00 | 39 | 1013.3 |
| 20260510134127 | 52 | 58 | 6.1 | 8.7 | 0.00 | 0.00 | 0.00 | 39 | 1013.3 |
| 20260510133127 | 50 | 66 | 7.8 | 8.7 | 0.00 | 0.00 | 0.00 | 38 | 1013.0 |
| 20260510132627 | 50 | 62 | 7.0 | 7.8 | 0.00 | 0.00 | 0.00 | 38 | 1013.0 |
| 20260510132128 | 50 | 58 | 5.2 | 7.8 | 0.00 | 0.00 | 0.00 | 39 | 1013.0 |
| 20260510131628 | 50 | 65 | 7.8 | 7.8 | 0.00 | 0.00 | 0.00 | 37 | 1013.0 |
| 20260510131127 | 49 | 55 | 4.3 | 7.8 | 0.00 | 0.00 | 0.00 | 37 | 1012.8 |
| 20260510130627 | 49 | 41 | 6.1 | 7.8 | 0.00 | 0.00 | 0.00 | 38 | 1012.8 |
| 20260510130127 | 49 | 52 | 3.5 | 7.8 | 0.00 | 0.00 | 0.00 | 38 | 1012.8 |
| 20260510125628 | 49 | 75 | 6.1 | 7.0 | 0.00 | 0.00 | 0.00 | 37 | 1013.4 |
| 20260510125127 | 49 | 67 | 4.3 | 7.0 | 0.00 | 0.00 | 0.00 | 38 | 1013.3 |
| 20260510124127 | 50 | 57 | 2.6 | 7.8 | 0.00 | 0.00 | 0.00 | 37 | 1013.4 |
| 20260510123627 | 50 | 63 | 2.6 | 7.8 | 0.00 | 0.00 | 0.00 | 37 | 1013.3 |
| 20260510122627 | 50 | 76 | 4.3 | 7.8 | 0.00 | 0.00 | 0.00 | 35 | 1013.2 |
| 20260510122127 | 49 | 27 | 5.2 | 7.0 | 0.00 | 0.00 | 0.00 | 35 | 1013.2 |
| 20260510121627 | 49 | 56 | 4.3 | 8.7 | 0.00 | 0.00 | 0.00 | 36 | 1013.3 |
| 20260510121127 | 50 | 68 | 4.3 | 8.7 | 0.00 | 0.00 | 0.00 | 35 | 1013.3 |
| 20260510120627 | 49 | 73 | 4.3 | 7.8 | 0.00 | 0.00 | 0.00 | 36 | 1013.3 |
| 20260510120127 | 49 | 53 | 6.1 | 7.8 | 0.00 | 0.00 | 0.00 | 35 | 1013.3 |
| 20260510115627 | 49 | 55 | 4.3 | 7.8 | 0.00 | 0.00 | 0.00 | 36 | 1013.8 |
| 20260510115127 | 48 | 55 | 4.3 | 7.8 | 0.00 | 0.00 | 0.00 | 37 | 1013.8 |
| 20260510114627 | 48 | 59 | 7.8 | 7.8 | 0.00 | 0.00 | 0.00 | 37 | 1013.8 |
| 20260510114126 | 48 | 65 | 3.5 | 7.0 | 0.00 | 0.00 | 0.00 | 37 | 1013.9 |
| 20260510113626 | 48 | 56 | 4.3 | 7.8 | 0.00 | 0.00 | 0.00 | 38 | 1013.9 |
| 20260510113126 | 48 | 64 | 7.0 | 7.8 | 0.00 | 0.00 | 0.00 | 37 | 1013.8 |
| 20260510112627 | 48 | 83 | 3.5 | 7.0 | 0.00 | 0.00 | 0.00 | 38 | 1013.8 |
| 20260510112126 | 48 | 67 | 4.3 | 7.0 | 0.00 | 0.00 | 0.00 | 37 | 1013.9 |
| 20260510111626 | 48 | 39 | 4.3 | 7.0 | 0.00 | 0.00 | 0.00 | 38 | 1014.0 |
| 20260510111127 | 48 | 73 | 4.3 | 7.0 | 0.00 | 0.00 | 0.00 | 38 | 1013.9 |
| 20260510110627 | 48 | 34 | 5.2 | 7.8 | 0.00 | 0.00 | 0.00 | 38 | 1013.9 |
| 20260510110126 | 48 | 61 | 7.8 | 7.8 | 0.00 | 0.00 | 0.00 | 38 | 1013.9 |
| 20260510105626 | 47 | 65 | 3.5 | 7.8 | 0.00 | 0.00 | 0.00 | 36 | 1014.2 |
| 20260510105126 | 47 | 83 | 2.6 | 7.8 | 0.00 | 0.00 | 0.00 | 39 | 1014.2 |
| 20260510104626 | 47 | 60 | 2.6 | 7.8 | 0.00 | 0.00 | 0.00 | 39 | 1014.2 |
| 20260510104126 | 48 | 71 | 4.3 | 7.8 | 0.00 | 0.00 | 0.00 | 39 | 1014.2 |
| 20260510103626 | 47 | 74 | 6.1 | 7.8 | 0.00 | 0.00 | 0.00 | 38 | 1014.2 |
| 20260510103126 | 47 | 56 | 4.3 | 7.0 | 0.00 | 0.00 | 0.00 | 38 | 1014.2 |
| 20260510102126 | 47 | 51 | 4.3 | 7.0 | 0.00 | 0.00 | 0.00 | 39 | 1014.2 |
| 20260510101626 | 47 | 32 | 5.2 | 7.0 | 0.00 | 0.00 | 0.00 | 39 | 1014.2 |
| 20260510101126 | 47 | 60 | 4.3 | 7.8 | 0.00 | 0.00 | 0.00 | 40 | 1014.3 |
| 20260510100626 | 47 | 50 | 5.2 | 7.8 | 0.00 | 0.00 | 0.00 | 40 | 1014.3 |
| 20260510100126 | 47 | 59 | 4.3 | 7.0 | 0.00 | 0.00 | 0.00 | 40 | 1014.4 |
| 20260510095626 | 47 | 47 | 3.5 | 7.0 | 0.00 | 0.00 | 0.00 | 39 | 1014.7 |
| 20260510095125 | 47 | 76 | 3.5 | 7.0 | 0.00 | 0.00 | 0.00 | 39 | 1014.7 |
| 20260510094626 | 47 | 51 | 4.3 | 7.0 | 0.00 | 0.00 | 0.00 | 38 | 1014.6 |
| 20260510094126 | 47 | 68 | 2.6 | 4.3 | 0.00 | 0.00 | 0.00 | 39 | 1014.6 |
| 20260510093625 | 48 | 70 | 4.3 | 4.3 | 0.00 | 0.00 | 0.00 | 39 | 1014.8 |
| 20260510092125 | 49 | 68 | 2.6 | 6.1 | 0.00 | 0.00 | 0.00 | 37 | 1014.9 |
| 20260510091625 | 49 | 86 | 4.3 | 6.1 | 0.00 | 0.00 | 0.00 | 36 | 1014.8 |
| 20260510091125 | 49 | 59 | 2.6 | 7.0 | 0.00 | 0.00 | 0.00 | 35 | 1014.8 |
| 20260510090625 | 49 | 49 | 5.2 | 7.0 | 0.00 | 0.00 | 0.00 | 36 | 1014.8 |
| 20260510090125 | 49 | 57 | 3.5 | 6.1 | 0.00 | 0.00 | 0.00 | 34 | 1014.7 |
| 20260510085625 | 49 | 35 | 4.3 | 6.1 | 0.00 | 0.00 | 0.00 | 36 | 1014.8 |
| 20260510084625 | 49 | 27 | 5.2 | 7.0 | 0.00 | 0.00 | 0.00 | 37 | 1014.8 |
| 20260510083624 | 49 | 32 | 4.3 | 7.0 | 0.00 | 0.00 | 0.00 | 38 | 1014.9 |
| 20260510083125 | 48 | 36 | 5.2 | 7.0 | 0.00 | 0.00 | 0.00 | 37 | 1014.9 |
| 20260510082124 | 48 | 38 | 4.3 | 7.8 | 0.00 | 0.00 | 0.00 | 38 | 1015.0 |
| 20260510081124 | 48 | 71 | 4.3 | 7.8 | 0.00 | 0.00 | 0.00 | 39 | 1015.1 |
| 20260510080624 | 48 | 67 | 5.2 | 7.8 | 0.00 | 0.00 | 0.00 | 39 | 1015.2 |
| 20260510080124 | 48 | 60 | 4.3 | 7.0 | 0.00 | 0.00 | 0.00 | 39 | 1015.2 |
| 20260510075624 | 48 | 41 | 4.3 | 7.0 | 0.00 | 0.00 | 0.00 | 39 | 1015.2 |
| 20260510075124 | 48 | 59 | 5.2 | 6.1 | 0.00 | 0.00 | 0.00 | 40 | 1015.2 |
| 20260510074624 | 49 | 38 | 3.5 | 7.0 | 0.00 | 0.00 | 0.00 | 40 | 1015.6 |
| 20260510073624 | 49 | 39 | 4.3 | 8.7 | 0.00 | 0.00 | 0.00 | 40 | 1015.7 |
| 20260510073124 | 49 | 65 | 3.5 | 8.7 | 0.00 | 0.00 | 0.00 | 40 | 1015.7 |
| 20260510072624 | 49 | 51 | 4.3 | 7.8 | 0.00 | 0.00 | 0.00 | 40 | 1015.8 |
| 20260510072124 | 49 | 59 | 4.3 | 7.8 | 0.00 | 0.00 | 0.00 | 39 | 1015.8 |
| 20260510071624 | 49 | 64 | 3.5 | 7.8 | 0.00 | 0.00 | 0.00 | 39 | 1015.8 |
| 20260510071124 | 49 | 78 | 7.0 | 7.8 | 0.00 | 0.00 | 0.00 | 40 | 1015.7 |
| 20260510070623 | 49 | 59 | 5.2 | 7.8 | 0.00 | 0.00 | 0.00 | 39 | 1015.8 |
| 20260510070153 | 49 | 74 | 6.1 | 7.0 | 0.00 | 0.00 | 0.00 | 40 | 1015.7 |
| 20260510065123 | 50 | 34 | 3.5 | 7.0 | 0.00 | 0.00 | 0.00 | 40 | 1015.7 |
| 20260510064623 | 50 | 54 | 5.2 | 7.0 | 0.00 | 0.00 | 0.00 | 41 | 1015.6 |
| 20260510064124 | 50 | 24 | 4.3 | 7.0 | 0.00 | 0.00 | 0.00 | 42 | 1015.7 |
| 20260510063623 | 50 | 24 | 3.5 | 7.0 | 0.00 | 0.00 | 0.00 | 42 | 1015.7 |
| 20260510063123 | 50 | 57 | 3.5 | 7.8 | 0.00 | 0.00 | 0.00 | 44 | 1015.7 |
| 20260510062653 | 50 | 52 | 4.3 | 7.8 | 0.00 | 0.00 | 0.00 | 44 | 1015.7 |
| 20260510062153 | 50 | 61 | 2.6 | 7.8 | 0.00 | 0.00 | 0.00 | 45 | 1015.6 |
| 20260510061653 | 50 | 67 | 3.5 | 7.0 | 0.00 | 0.00 | 0.00 | 46 | 1015.6 |
| 20260510061153 | 50 | 74 | 4.3 | 7.0 | 0.00 | 0.00 | 0.00 | 46 | 1015.5 |
| 20260510060653 | 51 | 49 | 3.5 | 8.7 | 0.00 | 0.00 | 0.00 | 46 | 1015.8 |
| 20260510060153 | 51 | 74 | 4.3 | 8.7 | 0.00 | 0.00 | 0.00 | 46 | 1015.8 |
| 20260510055653 | 51 | 65 | 3.5 | 7.8 | 0.00 | 0.00 | 0.00 | 47 | 1015.6 |
| 20260510055153 | 51 | 33 | 3.5 | 7.0 | 0.00 | 0.00 | 0.00 | 46 | 1015.6 |
| 20260510054653 | 51 | 73 | 3.5 | 7.0 | 0.00 | 0.00 | 0.00 | 46 | 1015.6 |
| 20260510054153 | 51 | 95 | 5.2 | 7.0 | 0.00 | 0.00 | 0.00 | 46 | 1015.6 |
| 20260510053652 | 51 | 103 | 5.2 | 7.0 | 0.00 | 0.00 | 0.00 | 47 | 1015.7 |
| 20260510053153 | 51 | 78 | 1.7 | 7.8 | 0.00 | 0.00 | 0.00 | 47 | 1015.5 |
| 20260510052652 | 51 | 63 | 4.3 | 7.8 | 0.00 | 0.00 | 0.00 | 48 | 1015.6 |
| 20260510052153 | 51 | 22 | 5.2 | 7.8 | 0.00 | 0.00 | 0.00 | 47 | 1015.5 |
| 20260510051153 | 51 | 76 | 6.1 | 7.0 | 0.00 | 0.00 | 0.00 | 45 | 1015.5 |
| 20260510050653 | 51 | 52 | 4.3 | 7.0 | 0.00 | 0.00 | 0.00 | 48 | 1015.5 |
| 20260510050152 | 51 | 76 | 4.3 | 7.0 | 0.00 | 0.00 | 0.00 | 46 | 1015.5 |
| 20260510045653 | 52 | 59 | 4.3 | 7.8 | 0.00 | 0.00 | 0.00 | 47 | 1015.4 |
| 20260510045152 | 52 | 48 | 3.5 | 7.8 | 0.00 | 0.00 | 0.00 | 50 | 1015.3 |
| 20260510044652 | 51 | 69 | 2.6 | 7.0 | 0.00 | 0.00 | 0.00 | 49 | 1015.1 |
| 20260510044152 | 51 | 74 | 4.3 | 7.0 | 0.00 | 0.00 | 0.00 | 52 | 1015.1 |
| 20260510043652 | 51 | 74 | 6.1 | 7.0 | 0.00 | 0.00 | 0.00 | 53 | 1015.0 |
| 20260510043152 | 52 | 52 | 3.5 | 7.0 | 0.00 | 0.00 | 0.00 | 56 | 1015.1 |
| 20260510042652 | 51 | 79 | 7.0 | 7.0 | 0.00 | 0.00 | 0.00 | 58 | 1014.9 |
| 20260510042152 | 52 | 67 | 2.6 | 7.0 | 0.00 | 0.00 | 0.00 | 59 | 1015.1 |
| 20260510041152 | 52 | 85 | 6.1 | 7.0 | 0.00 | 0.00 | 0.00 | 57 | 1015.1 |
| 20260510040652 | 52 | 71 | 4.3 | 7.0 | 0.00 | 0.00 | 0.00 | 58 | 1015.1 |
| 20260510040152 | 52 | 50 | 3.5 | 6.1 | 0.00 | 0.00 | 0.00 | 63 | 1015.0 |
| 20260510035652 | 52 | 61 | 4.3 | 6.1 | 0.00 | 0.00 | 0.00 | 61 | 1014.3 |
| 20260510035152 | 53 | 51 | 5.2 | 6.1 | 0.00 | 0.00 | 0.00 | 63 | 1014.7 |
| 20260510034152 | 54 | 74 | 2.6 | 6.1 | 0.00 | 0.00 | 0.00 | 65 | 1014.6 |
| 20260510033651 | 55 | 55 | 3.5 | 5.2 | 0.00 | 0.00 | 0.00 | 67 | 1014.9 |
| 20260510033151 | 55 | 65 | 3.5 | 5.2 | 0.00 | 0.00 | 0.00 | 67 | 1014.8 |
| 20260510032651 | 56 | 48 | 3.5 | 6.1 | 0.00 | 0.00 | 0.00 | 67 | 1014.7 |
| 20260510032151 | 56 | 69 | 2.6 | 6.1 | 0.00 | 0.00 | 0.00 | 67 | 1014.4 |
| 20260510031151 | 57 | 53 | 4.3 | 4.3 | 0.00 | 0.00 | 0.00 | 68 | 1014.6 |
| 20260510030652 | 58 | 51 | 2.6 | 4.3 | 0.00 | 0.00 | 0.00 | 68 | 1014.6 |
| 20260510030152 | 58 | 51 | 2.6 | 4.3 | 0.00 | 0.00 | 0.00 | 67 | 1014.5 |
| 20260510025651 | 59 | 62 | 2.6 | 4.3 | 0.00 | 0.00 | 0.00 | 66 | 1013.8 |
| 20260510025151 | 60 | 54 | 2.6 | 4.3 | 0.00 | 0.00 | 0.00 | 65 | 1013.9 |
| 20260510024651 | 61 | 61 | 2.6 | 4.3 | 0.00 | 0.00 | 0.00 | 64 | 1014.2 |
| 20260510024151 | 61 | 63 | 3.5 | 4.3 | 0.00 | 0.00 | 0.00 | 63 | 1014.2 |
| 20260510023151 | 63 | 48 | 3.5 | 3.5 | 0.00 | 0.00 | 0.00 | 60 | 1014.5 |
| 20260510022151 | 65 | 236 | 0.0 | 0.0 | 0.00 | 0.00 | 0.00 | 58 | 1014.6 |
| 20260510021650 | 66 | 236 | 0.0 | 0.0 | 0.00 | 0.00 | 0.00 | 56 | 1014.5 |
| 20260510021150 | 67 | 236 | 0.0 | 0.0 | 0.00 | 0.00 | 0.00 | 55 | 1014.8 |
| 20260510020651 | 67 | 236 | 0.0 | 0.0 | 0.00 | 0.00 | 0.00 | 55 | 1014.8 |
| 20260510020150 | 68 | 236 | 0.0 | 0.0 | 0.00 | 0.00 | 0.00 | 54 | 1014.7 |
| 20260510015151 | 69 | 236 | 0.0 | 3.5 | 0.00 | 0.00 | 0.00 | 54 | 1013.5 |
| 20260510014650 | 69 | 236 | 2.6 | 3.5 | 0.00 | 0.00 | 0.00 | 53 | 1013.5 |
| 20260510014150 | 70 | 261 | 0.0 | 2.6 | 0.00 | 0.00 | 0.00 | 54 | 1013.6 |
| 20260510013650 | 70 | 265 | 0.9 | 6.1 | 0.00 | 0.00 | 0.00 | 52 | 1013.6 |
| 20260510013150 | 70 | 255 | 0.0 | 6.1 | 0.00 | 0.00 | 0.00 | 52 | 1013.7 |
| 20260510012650 | 71 | 242 | 0.0 | 7.0 | 0.00 | 0.00 | 0.00 | 52 | 1013.6 |
| 20260510012150 | 71 | 242 | 2.6 | 7.0 | 0.00 | 0.00 | 0.00 | 51 | 1013.6 |
| 20260510011150 | 72 | 229 | 0.9 | 5.2 | 0.00 | 0.00 | 0.00 | 51 | 1013.8 |
| 20260510010650 | 72 | 234 | 0.9 | 7.8 | 0.00 | 0.00 | 0.00 | 49 | 1013.7 |
| 20260510010150 | 73 | 258 | 3.5 | 7.8 | 0.00 | 0.00 | 0.00 | 50 | 1013.9 |
| 20260510005650 | 74 | 232 | 0.9 | 7.0 | 0.00 | 0.00 | 0.00 | 49 | 1013.7 |
| 20260510005149 | 74 | 224 | 4.3 | 7.0 | 0.00 | 0.00 | 0.00 | 49 | 1013.7 |
| 20260510004650 | 75 | 202 | 1.7 | 7.0 | 0.00 | 0.00 | 0.00 | 48 | 1013.6 |
| 20260510004149 | 75 | 227 | 0.0 | 7.0 | 0.00 | 0.00 | 0.00 | 47 | 1013.7 |
| 20260510003650 | 76 | 224 | 3.5 | 7.0 | 0.00 | 0.00 | 0.00 | 48 | 1013.8 |
| 20260510002149 | 77 | 224 | 2.6 | 7.8 | 0.00 | 0.00 | 0.00 | 46 | 1013.8 |
| 20260510001649 | 77 | 237 | 0.0 | 7.8 | 0.00 | 0.00 | 0.00 | 45 | 1013.7 |
| 20260510001150 | 77 | 227 | 3.5 | 9.6 | 0.00 | 0.00 | 0.00 | 46 | 1013.7 |
| 20260510000649 | 78 | 249 | 4.3 | 9.6 | 0.00 | 0.00 | 0.00 | 45 | 1013.9 |
| 20260509235650 | 78 | 253 | 7.8 | 9.6 | 0.00 | 0.00 | 0.00 | 44 | 1013.6 |
| 20260509235149 | 78 | 243 | 2.6 | 9.6 | 0.00 | 0.00 | 0.00 | 44 | 1013.6 |
| 20260509234649 | 79 | 232 | 3.5 | 7.8 | 0.00 | 0.00 | 0.00 | 44 | 1013.8 |
| 20260509233649 | 80 | 250 | 1.7 | 6.1 | 0.00 | 0.00 | 0.00 | 43 | 1013.9 |
| 20260509233149 | 80 | 234 | 0.0 | 8.7 | 0.00 | 0.00 | 0.00 | 43 | 1013.9 |
| 20260509232149 | 81 | 244 | 7.8 | 8.7 | 0.00 | 0.00 | 0.00 | 42 | 1014.1 |
| 20260509231649 | 81 | 227 | 0.0 | 7.8 | 0.00 | 0.00 | 0.00 | 43 | 1014.1 |
| 20260509230149 | 81 | 260 | 5.2 | 9.6 | 0.00 | 0.00 | 0.00 | 43 | 1014.1 |
| 20260509225648 | 81 | 239 | 0.0 | 8.7 | 0.00 | 0.00 | 0.00 | 42 | 1014.1 |
| 20260509224648 | 81 | 211 | 2.6 | 7.8 | 0.00 | 0.00 | 0.00 | 43 | 1014.3 |
| 20260509224148 | 81 | 184 | 1.7 | 9.6 | 0.00 | 0.00 | 0.00 | 41 | 1014.3 |
| 20260509223648 | 82 | 248 | 0.0 | 9.6 | 0.00 | 0.00 | 0.00 | 40 | 1014.4 |
| 20260509223149 | 82 | 227 | 1.7 | 9.6 | 0.00 | 0.00 | 0.00 | 40 | 1014.4 |
| 20260509222648 | 83 | 225 | 1.7 | 9.6 | 0.00 | 0.00 | 0.00 | 39 | 1014.6 |
| 20260509222148 | 83 | 315 | 1.7 | 8.7 | 0.00 | 0.00 | 0.00 | 40 | 1014.7 |
| 20260509221648 | 83 | 232 | 0.9 | 8.7 | 0.00 | 0.00 | 0.00 | 37 | 1014.5 |